Regional Weather Roundup
Issued by NWS Wakefield, VA

Home | Current Version | Previous Version | Text Only | Print | Product List | Glossary Off
Versions: 1 2 3 4 5 6 7 8 9 10 11 12 13 14 15 16 17 18 19 20 21 22 23 24 25 26 27 28 29 30 31 32 33 34 35 36 37 38 39 40 41 42 43 44 45 46 47 48 49 50

000
ASUS41 KAKQ 152110
RWRAKQ

REGIONAL WEATHER ROUNDUP
NATIONAL WEATHER SERVICE WAKEFIELD VA
500 PM EDT MON SEP 15 2014

Note: "fair" indicates few or no clouds below 12,000 feet with no
significant weather and/or obstructions to visibility. * = Denotes
station may not report precipitation (e.g., rain,snow,etc.),
thunder or fog.

VAZ042-051-052>054-056-152200-
NORTHERN VIRGINIA

CITY           SKY/WX    TMP DP  RH WIND       PRES   REMARKS
WASH NATIONAL  PTSUNNY   76  51  41 S8        30.13F
DULLES         PTSUNNY   72  51  47 SW3       30.13F
FORT BELVOIR   FAIR      73  54  51 SE6       30.13F
QUANTICO       FAIR      73  53  49 CALM      30.13F
FREDERICKSBRG* FAIR      77  55  45 S6        30.12F
STAFFORD*      FAIR      75  55  50 CALM      30.16F
WARRENTON      FAIR      76  60  57 S6        30.12F
CULPEPER*      FAIR     N/A N/A N/A SW3       30.13S
MANASSAS*      MOSUNNY   73  55  53 S7        30.13F
LEESBURG*      FAIR      73  54  49 SW3       30.14F
WINCHESTER     FAIR      73  52  46 SE6       30.12F
FRONT ROYAL*   FAIR      72  55  56 SE5       30.11F
LURAY*         FAIR      77  52  41 SW6       30.11F
$$

VAZ048-049-060>072-079>083-152200-
CENTRAL AND SOUTH CENTRAL VIRGINIA...AND NORTH CENTRAL NORTH CAROLINA

CITY           SKY/WX    TMP DP  RH WIND       PRES   REMARKS
RICHMOND       CLOUDY    75  57  53 S12       30.13F
CHESTERFIELD*  CLOUDY    72  54  53 SW6       30.16S
PETERSBURG*    CLOUDY    72  58  61 SW3       30.15S
HANOVER        CLOUDY    73  63  70 CALM      30.14F
TAPPAHANNOCK*  CLOUDY    74  55  50 CALM      30.14F
CHARLOTTSVILLE PTSUNNY   73  55  53 S3        30.12F
ORANGE*        FAIR      73  55  53 SE3       30.14F
LOUISA*        PTSUNNY   75  57  53 SE6       30.12F
FARMVILLE*     FAIR      73  59  60 S5        30.11F
CREWE*         CLOUDY    74  63  69 S5        30.15S
FORT PICKETT*  CLOUDY    71  62  74 S3        30.15S
LUNENBURG*     FAIR      71  64  76 SE3       30.14F
SOUTH HILL*    CLOUDY    73  64  73 CALM      30.20S
LAWRENCEVILLE* CLOUDY    71  62  75 CALM      30.15S
ROANOKE RAPIDS CLOUDY    72  61  68 CALM      30.15S
RALEIGH        CLOUDY    72  63  73 S6        30.15S
$$

VAZ088>098-152200-
SOUTHEAST VIRGINIA

CITY           SKY/WX    TMP DP  RH WIND       PRES   REMARKS
NORFOLK        CLOUDY    70  57  63 SE8       30.15S
VIRGINIA BEACH CLOUDY    70  57  63 SE7       30.15S
NORFOLK NAVAL  CLOUDY    72  59  63 SE6       30.16F
WEST POINT*    NOT AVBL
NEWPORT NEWS   CLOUDY    76  60  57 SE5       30.14F
LANGLEY AFB    CLOUDY    71  60  66 SE6       30.14S
FORT EUSTIS    PTSUNNY   73  56  55 SE6       30.13S
WILLIAMSBURG*  PTSUNNY   75  63  64 S5        30.15S
HR EXEC AP*    CLOUDY    70  61  73 SE6       30.17S
FRANKLIN*        N/A     73  61  64 S5        30.15S
WAKEFIELD      CLOUDY    74  60  61 SW6       30.15R
$$

VAZ020-022-025-037-045-152200-
WEST CENTRAL AND SOUTHWEST VIRGINIA

CITY           SKY/WX    TMP DP  RH WIND       PRES   REMARKS
STAUNTON*      FAIR      74  55  51 S9        30.14S
HOT SPRINGS VA CLOUDY    59  49  69 S5        30.23F
LYNCHBURG      FAIR      72  61  68 S6        30.14F
DANVILLE       PTSUNNY   74  64  71 VRB3      30.14S
SOUTH BOSTON*  NOT AVBL
MARTINSVILLE   CLOUDY    75  65  71 SW3       30.16S
ROANOKE        CLOUDY    73  62  68 SE8       30.15S
BLACKSBURG     FAIR      73  66  78 SE8       30.17F
DUBLIN*        PTSUNNY   74  66  74 S8        30.17S
MARION*        PTSUNNY   72  62  70 W13       30.20F
HILLSVILLE*    CLOUDY    63  60  92 S6        30.20S
RICHLANDS*     FAIR      72  62  71 SW7       30.19S
WISE*          PTSUNNY   70  57  64 SW8       30.22R
ABINGDON*      FAIR      74  63  69 W8        30.18S
$$

MDZ021>025-VAZ099-100-152200-
SOUTHERN MARYLAND AND THE DELMARVA PENINSULA

CITY           SKY/WX    TMP DP  RH WIND       PRES   REMARKS
PATUXENT RIVER PTSUNNY   71  53  52 SE8       30.14F
BAY BRIDGE APT   N/A     72  46  40 CALM      30.15S
LEONARDTOWN    FAIR      70  54  56 E6        30.15F
DOVER          FAIR      72  51  48 NE7       30.13S
GEORGETOWN     FAIR      73  50  44 NE13      30.14F
EASTON         MOSUNNY   73  54  49 NW6       30.18S
CAMBRIDGE      FAIR      72  50  46 CALM      30.14F
SALISBURY      SUNNY    N/A N/A N/A MISG      30.14
OCEAN CITY     FAIR      70  51  51 E6        30.15S
WALLOPS ISLAND FAIR      71  56  58 S7        30.15F
ACCOMACK*      PTSUNNY   70  54  56 SE3       30.15S
$$

NCZ012>017-030>032-152200-
EASTERN NORTH CAROLINA

CITY           SKY/WX    TMP DP  RH WIND       PRES   REMARKS
ELIZABETH CITY CLOUDY    71  61  70 E8        30.15S
AHOSKIE*       CLOUDY    72  61  69 CALM      30.15F
EDENTON*       CLOUDY    73  63  70 E3        30.15S
CURRITUCK*     CLOUDY    71  57  63 CALM      30.17S
KILL DEVIL HLS CLOUDY    72  59  62 CALM      30.14S
MANTEO         FAIR      73  60  62 E7        30.16S
CAPE HATTERAS  CLOUDY    73  63  70 NE6       30.14S
TARBORO*       CLOUDY    74  63  67 CALM      30.15F
GOLDSBORO      CLOUDY    75  68  79 SE3       30.12F
WASHINGTON     PTSUNNY   73  63  69 CALM      30.15F
GREENVILLE     CLOUDY    73  64  73 SE3       30.16S
NEW BERN       PTSUNNY   79  64  61 E3        30.14F
WILMINGTON     CLOUDY    76  66  71 NE6       30.14F
$$

VAZ048-152200-
ELSEWHERE

CITY           SKY/WX    TMP DP  RH WIND       PRES   REMARKS
HARRISBURG PA  PTSUNNY   72  48  42 SW7       30.12F
BALTIMORE      PTSUNNY   71  52  50 SE5       30.13F
ANNAPOLIS      FAIR      69  52  54 SE7       30.14F
ANDREWS AFB    FAIR      73  54  50 SW7       30.13F
WILMINGTON DE  FAIR      72  49  44 S5        30.14F
PHILADELPHIA   FAIR      71  46  40 S6        30.13F
WILDWOOD NJ*   FAIR      70  46  43 CALM      30.16F
ATLANTIC CITY  FAIR      69  55  60 SE7       30.15R
HENDERSON NC   CLOUDY    71  61  71 SE3       30.16S
GREENSBORO     CLOUDY    72  63  73 S6        30.14F
ROCKY MOUNT    CLOUDY    73  65  75 CALM      30.15S
FAYETTEVILLE   CLOUDY    75  66  73 E5        30.13S
CHARLOTTE      CLOUDY    74  64  71 CALM      30.15F
$$

VAZ100-152200-
MARINE

STATION/POSITION TIME  TEMP    WIND        PRES    WAVE   SWELL
                       AIR SEA DIR/SP/G            HT/PER HT/PER
                 (UTC) (F)     (DEG/KT/KT) (MB)    (FT/S) (FT/S)
44066 TX TWR #4  2100   66 76   30/  8/ 12 1020.2F   2/ 8   2/ 8
CAPE MAY NJ      2100   69 76  330/  3/  5 1020.4F
LEWES DE         2100   68 72   10/  8/  9 1020.5F
15NM E FENWICK I 2100   67 73              1020.5F   2/ 7
OCEAN-CITY-INLET 2100   69 72   90/  4/  6 1020.5F
WACHAPREAGUE VA  2100   69 75  180/  4/  5 1021.0S
THOMAS POINT MD  2100   69 75  150/  3/  3 1021.6F
GOOSES REEF MD   2100   71      CALM  /  2 1021.4S
COVE POINT MD    2100   69     170/  8/  9 1020.7S
SOLOMONS ISLAND  2100      77                N/A
BISHOPS HEAD MD  2100   70 75  150/  6/  8 1020.4F
PINEY POINT MD   2100          160/  9/ 10   N/A
POTOMAC MD       2100   70     130/  6/  8 1020.3F
CAMBRIDGE MD     2100   71 75   50/  3/  4 1020.4F
LEWISETTA VA     2100   70 75  120/ 10/ 11 1020.3F
RAPPAHANNOCK LGT 2100          150/  5/  7 1021.4S
STINGRAY PT      2100   71     160/  6/  8   N/A
YORK RVR RNG VA  2100   70     150/  8/ 10 1020.4R
YORKTOWN VA      2100   71 77  130/  6/  9 1020.4S
JAMESTOWN VA     2100   71     150/  6/  8   N/A
DOMINION TERM VA 2100   71     140/  7/  9 1020.7F
KIPTOPEKE VA     2100      79  140/  7/  8   N/A
CHES BAY BRIDGE  2100   70 76   90/  7/ 10 1020.4F
CAPE HENRY VA    2100   70     120/  6/  9 1019.7F
CHESAPEAKE LGHT  2000   69      90/  7/  8 1021.9F
WILLOUBY STN VA  2100   70      70/  6/  8 1019.5F
S CRANEY ISL VA  2100          190/  4/  6 1020.5S
CAPE HENRY BUOY  2100      76                N/A     2/ 8
1ST LANDING BUOY 2100   70     120/  8/ 10 1020.6S
CAPE CHARLES BUO 2100      76                N/A     2/13   2/13
OFFSHORE WE BUOY 2100      75                N/A     2/ 8   2/ 8
64NM E OF VA BCH 2100   71 80   30/  8/ 10 1020.6S   3/ 7   2/ 7
DUCK PIER NC     2100   71 76   50/  5/  6 1020.5R
44100 DUCK FRF   2100      75                N/A     2/ 8
44056 DUCK FRF   2100                        N/A     2/ 8
OREGON INLET NC  2100   72 74   40/  7/  9 1020.9S
HATTERAS NC      2100   74 77   40/  7/ 11 1020.9F
DIAMOND SHLS NC  2100   74     350/ 12/ 14 1020.2S   4/ 8   3/ 8
CAPE LOOKOUT NC  2000   75      40/  8/ 11 1020.6F
$$


USA.gov is the U.S. government's official web portal to all federal, state and local government web resources and services.